Temperature
17 17 17 16 16 16 16 16 15 15 15 15 14 14 14 14 14 14 14 13 13 13 13 13 13 13 13 13 13 13 13 12 12 12 12 12 12 12 13 13 13 13 13
17 17 17 16 16 16 16 15 15 15 15 15 14 14 14 14 14 14 13 13 13 13 13 13 13 13 13 13 13 12 12 12 12 12 12 12 12 12 12 12 12 12 12
17 17 17 16 16 16 16 15 15 15 15 14 14 14 14 14 14 14 14 13 13 13 13 13 13 13 13 12 12 12 12 12 12 12 12 12 11 11 11 12 12 12 12
17 17 17 16 16 16 16 15 15 15 15 14 14 14 14 14 14 14 14 13 13 13 13 13 13 13 12 12 12 12 12 12 12 12 11 11 11 11 11 11 11 11 11
17 17 17 16 16 16 15 15 15 15 15 14 14 14 14 14 14 14 13 13 13 13 13 13 13 12 12 12 12 12 12 11 11 11 11 11 11 11 11 10 10 11 11
17 17 17 16 16 16 15 15 15 15 14 14 14 14 14 14 14 13 13 13 13 13 13 13 12 12 12 12 12 11 11 11 11 11 11 10 10 10 10 10 10 10 10
17 17 17 16 16 16 16 15 15 15 15 14 14 14 14 14 13 13 13 13 13 13 13 12 12 12 12 11 11 11 11 11 10 10 10 10 10 9 9 9 9 9 9
17 17 17 16 16 16 16 15 15 15 15 14 14 14 14 14 13 13 13 13 13 13 12 12 12 12 11 11 11 11 11 10 10 10 10 9 9 9 9 9 8 8 9
17 17 17 16 16 16 16 16 15 15 15 14 14 14 14 13 13 13 13 13 13 12 12 12 12 11 11 11 11 11 10 10 10 10 9 9 9 9 8 8 8 8 8
17 17 17 16 16 16 16 16 15 15 15 14 14 14 14 13 13 13 13 12 12 12 12 12 11 11 11 10 10 10 10 10 10 10 9 9 9 9 8 8 8 7 7
17 17 17 16 16 16 16 15 15 15 14 14 14 14 13 13 13 13 12 12 12 12 12 11 11 11 11 10 10 10 10 9 9 9 9 9 9 9 8 8 7 7 7
17 17 16 16 16 16 15 15 15 14 14 14 13 13 13 13 13 12 12 12 12 11 11 11 11 10 10 10 10 9 9 9 9 9 8 8 8 8 8 7 7 7 7
17 16 16 16 16 15 15 15 14 14 14 13 13 13 13 13 12 12 12 12 11 11 11 11 10 10 10 9 9 9 9 8 8 8 8 8 8 7 7 7 7 7 6
16 16 16 15 15 15 15 14 14 14 14 13 13 13 13 12 12 12 12 11 11 11 11 10 10 10 9 9 9 9 8 8 8 7 7 7 7 7 7 6 6 6 6
16 16 15 15 15 14 14 14 14 14 13 13 13 13 12 12 12 12 11 11 11 11 10 10 10 9 9 9 9 8 8 8 7 7 7 7 7 6 6 6 5 5 5
16 15 15 15 14 14 14 13 13 13 13 12 12 12 12 12 11 11 11 11 10 10 10 9 9 9 9 9 8 8 8 7 7 7 6 6 6 6 5 5 5 5 4
15 15 14 14 14 14 13 13 13 12 12 12 12 11 11 11 11 11 10 10 10 9 9 9 9 8 8 8 8 8 7 7 7 6 6 6 5 5 5 5 4 4 4
15 14 14 14 13 13 13 13 12 12 12 12 11 11 11 11 10 10 10 9 9 9 9 8 8 8 8 8 7 7 7 6 6 6 5 5 5 5 4 4 4 4 4
14 14 13 13 13 13 12 12 12 11 11 11 11 11 11 10 10 10 9 9 9 8 8 8 8 7 7 7 7 7 6 6 6 5 5 5 5 4 4 4 4 3 3
13 13 13 13 12 12 12 11 11 11 11 11 10 10 10 10 9 9 9 9 8 8 8 7 7 7 7 6 6 6 6 5 5 5 5 5 4 4 4 3 3 3 3
13 13 12 12 12 12 11 11 11 11 10 10 10 10 9 9 9 9 9 8 8 8 7 7 7 6 6 6 6 5 5 5 5 5 4 4 4 4 3 3 3 3 2
12 12 12 11 11 11 11 10 10 10 10 10 10 9 9 9 8 8 8 8 7 7 7 6 6 6 6 5 5 5 5 4 4 4 4 4 3 3 3 3 3 2 2
11 11 11 11 11 10 10 10 9 9 9 9 9 9 8 8 8 8 7 7 7 6 6 6 6 5 5 5 4 4 4 4 4 4 3 3 3 3 2 2 2 2 2
11 10 10 10 10 9 9 9 9 9 8 8 8 8 7 7 7 7 7 6 6 6 5 5 5 5 5 4 4 4 4 3 3 3 3 3 2 2 2 2 2 2 2
10 9 9 9 9 9 8 8 8 8 8 7 7 7 7 6 6 6 6 6 5 5 5 5 4 4 4 4 4 3 3 3 3 3 2 2 2 2 2 2 2 1 1
9 9 8 8 8 8 7 7 7 7 7 7 6 6 6 6 5 5 5 5 4 4 4 4 4 4 4 3 3 3 3 3 3 2 2 2 2 2 2 1 1 1 1
Wind_Speed
6 5 6 5 5 5 5 5 4 3 3 4 3 3 3 3 3 4 3 3 4 4 3 4 3 3 3 3 3 3 2 2 1 2 2 3 3 4 6 8 9 9 9
6 6 6 6 5 5 5 5 5 4 4 4 4 4 3 3 3 3 3 3 4 3 3 3 3 3 4 3 3 3 2 1 2 1 2 3 3 3 4 4 7 8 9
7 7 6 5 5 5 5 5 5 5 4 4 4 4 4 3 3 3 3 3 3 3 3 3 2 3 3 2 2 2 1 2 1 1 2 2 2 3 4 4 5 5 8
7 7 7 7 6 6 5 5 5 5 5 5 4 4 4 3 3 3 3 3 3 2 2 2 1 2 1 1 1 1 1 2 2 1 2 2 2 3 2 4 5 4 5
8 8 8 7 6 6 6 5 5 5 5 5 4 3 3 3 3 4 4 3 3 2 1 1 0 1 0 1 0 0 1 1 1 1 2 2 3 3 3 3 4 5 5
9 8 7 7 7 7 6 6 5 5 4 4 4 4 4 3 4 5 5 4 3 2 1 1 1 1 2 3 2 1 0 0 1 1 1 2 4 3 3 3 3 4 4
8 7 7 7 7 7 7 7 6 5 5 5 4 4 4 3 4 4 5 4 3 2 2 1 1 1 2 1 3 3 3 3 2 2 2 4 4 4 3 3 3 3 5
7 7 7 8 7 6 6 7 6 5 5 5 4 4 3 3 4 4 4 3 3 2 2 3 2 2 1 1 1 2 3 4 3 2 3 5 5 4 4 3 4 4 5
8 8 8 8 8 7 7 7 6 5 5 4 4 5 4 3 4 4 4 3 2 1 2 2 3 2 3 2 0 2 3 4 5 6 7 7 8 8 6 2 3 3 5
9 9 8 8 8 8 8 7 5 5 5 5 4 4 5 4 5 5 5 3 2 2 2 2 3 4 4 3 2 2 3 5 5 5 6 7 7 7 7 3 3 3 4
8 7 7 7 7 7 6 5 5 5 5 4 4 4 4 5 5 6 6 4 4 3 3 3 4 5 5 4 3 3 5 5 4 4 4 4 4 4 4 4 4 4 4
7 7 7 7 6 6 6 5 5 6 5 5 4 3 3 4 5 6 8 7 6 4 4 4 4 6 6 6 4 5 8 6 2 3 3 4 4 5 5 5 7 7 8
7 7 7 6 5 6 6 6 4 5 5 5 4 5 4 4 4 8 8 8 8 6 5 6 6 6 6 5 7 7 6 3 2 3 5 5 5 5 5 5 6 6 8
8 7 6 6 5 5 5 5 5 5 5 5 5 5 5 4 4 4 5 5 6 6 5 5 6 6 4 5 5 5 4 4 4 5 5 5 4 4 4 4 4 4 5
7 6 6 6 6 5 5 5 6 7 8 8 7 6 6 6 8 9 7 5 5 6 4 2 2 2 3 4 4 4 4 4 4 4 4 5 5 5 5 4 4 4 5
6 6 5 5 5 4 4 3 4 5 8 10 10 8 7 9 9 9 10 10 10 8 4 3 4 5 5 6 5 5 4 5 5 5 5 5 5 6 6 5 4 5 6
7 6 5 5 5 5 4 5 4 4 5 7 9 10 10 9 9 9 9 9 8 7 5 5 5 6 6 6 6 6 6 6 5 5 5 6 6 6 5 6 5 6 7
5 6 5 5 5 5 5 5 5 4 4 5 6 9 10 10 9 8 7 4 3 4 5 6 7 7 6 6 7 6 6 6 5 5 6 6 6 5 6 6 6 7 8
4 3 4 4 4 5 5 5 4 5 5 5 4 5 7 7 7 6 5 4 5 5 6 7 7 7 7 7 7 7 7 6 6 6 6 6 6 6 6 7 7 10 9
3 4 3 3 3 3 4 4 5 5 5 5 5 5 3 2 3 4 4 5 5 6 6 7 7 7 7 7 7 6 6 6 7 7 7 6 6 6 7 8 8 8 8
2 3 3 2 3 4 4 5 5 5 5 6 6 6 6 4 5 6 5 6 6 7 6 6 6 6 6 6 6 7 7 7 7 7 7 6 6 7 7 7 8 8 8
2 2 2 3 3 3 3 4 4 5 6 6 5 5 7 4 5 5 6 6 6 6 6 5 6 6 6 6 6 6 7 7 7 7 7 7 7 7 7 7 8 8 8
2 2 2 2 2 3 3 3 3 4 5 5 5 4 4 5 5 5 6 6 5 5 6 6 6 6 7 7 8 7 7 8 7 7 7 7 7 7 7 8 9 9 9
2 2 1 2 2 2 3 3 4 4 4 4 4 4 5 5 5 6 6 5 5 6 6 6 7 9 10 9 9 9 10 11 10 8 9 8 8 8 8 8 9 10 10
1 1 1 1 2 2 2 3 3 3 3 4 4 4 4 4 5 5 5 5 5 6 7 7 7 9 11 12 11 11 13 14 13 10 9 7 8 9 9 10 9 10 10
1 0 0 1 1 1 2 2 3 3 3 4 4 4 4 4 4 5 4 4 5 6 7 7 9 10 11 11 12 13 14 14 14 13 10 7 8 9 9 9 11 10 11
Wind_Direction
173 174 165 170 165 159 163 171 170 160 149 142 148 133 118 104 91 90 96 89 87 73 68 75 59 52 48 39 50 62 68 103 122 306 309 328 354 353 354 2 1 359 357
179 172 170 168 162 164 174 177 167 160 158 158 150 135 128 120 112 114 117 104 105 94 83 79 59 59 48 35 44 45 46 81 130 325 326 338 340 334 337 344 350 349 343
176 172 171 170 169 176 180 172 161 156 151 151 142 143 144 143 134 133 127 116 114 113 112 107 91 77 51 32 42 41 23 35 79 118 319 323 322 336 345 339 338 337 337
177 175 178 182 183 182 176 167 162 155 152 157 158 157 159 155 148 143 130 120 113 110 112 122 134 131 143 120 59 45 51 43 38 39 338 328 320 321 350 339 333 330 325
176 180 186 186 181 171 168 168 164 159 159 161 154 152 155 151 157 151 146 137 128 111 74 81 141 149 144 142 107 164 103 72 32 16 339 338 329 333 328 317 320 316 312
179 188 181 175 172 172 174 168 164 165 159 152 155 153 155 162 159 156 146 136 135 136 153 311 330 6 6 6 359 353 134 138 211 209 283 289 287 284 295 307 312 331 316
181 183 178 174 173 177 177 167 171 170 158 157 164 158 162 178 170 161 154 144 146 161 182 210 316 350 12 357 347 353 344 333 293 220 239 259 267 268 278 293 289 285 281
182 183 181 177 180 177 169 172 175 165 163 167 173 172 170 197 191 180 164 143 148 181 203 201 204 263 287 280 325 340 317 307 299 278 242 255 262 255 235 254 266 286 284
186 192 190 182 179 177 180 183 178 166 170 175 177 177 181 215 208 194 169 147 163 230 243 214 204 223 267 282 327 308 313 310 311 305 297 298 301 300 297 303 312 317 307
196 195 188 182 181 186 190 187 176 173 185 181 186 192 193 208 215 208 192 165 190 237 262 263 247 240 256 261 225 244 285 288 301 315 319 316 312 307 304 274 247 273 289
189 179 176 179 185 187 185 180 174 176 177 184 195 209 209 217 223 218 202 186 200 217 236 253 255 262 265 270 258 235 261 281 282 286 293 300 304 302 298 283 252 234 256
169 172 178 181 184 179 169 174 173 173 179 194 202 224 236 235 225 223 216 213 206 206 231 240 246 258 265 273 271 277 288 299 293 293 293 292 291 288 282 282 274 260 250
168 178 182 180 182 171 171 176 174 177 187 203 205 222 241 242 239 234 229 228 222 220 233 235 242 253 263 273 279 287 291 280 270 273 275 274 267 267 279 290 289 284 279
172 181 181 180 182 178 178 181 183 191 198 206 211 223 234 239 238 236 234 238 234 234 240 250 256 265 261 264 279 283 266 252 249 252 264 267 272 275 276 275 279 285 289
176 179 182 184 184 187 193 199 199 208 204 204 214 215 215 234 240 226 218 225 221 223 210 224 243 258 265 271 273 272 266 267 264 257 260 271 277 278 278 274 266 268 271
178 182 184 184 184 185 190 225 242 228 226 219 217 215 227 232 240 237 234 233 225 213 195 222 237 242 249 256 262 267 261 255 254 255 258 261 268 273 277 278 270 268 273
182 187 186 184 185 188 190 198 231 269 259 242 233 229 230 237 240 239 238 235 228 207 215 233 239 243 246 249 250 253 258 256 250 247 251 257 263 268 273 277 278 278 278
178 188 188 192 192 195 200 204 207 217 241 259 254 244 240 241 242 240 232 215 234 218 226 237 244 246 245 247 250 252 256 257 250 248 250 254 255 261 269 273 273 275 279
178 189 192 193 197 202 205 207 212 219 230 244 258 266 248 242 244 242 210 208 226 234 236 241 243 245 247 248 250 250 250 250 248 246 250 251 251 254 261 265 269 273 275
195 210 200 196 200 206 207 212 220 227 234 240 244 246 240 218 236 241 225 228 235 243 245 247 249 250 250 251 252 251 252 251 249 249 251 252 251 251 257 263 267 272 274
189 208 213 208 211 215 218 223 225 227 233 239 245 241 218 221 230 232 230 230 234 241 247 251 252 254 254 253 251 251 252 253 250 248 249 251 252 254 257 260 265 269 273
185 197 206 212 220 226 232 233 231 231 233 237 247 248 229 227 234 238 237 237 235 237 241 243 248 250 248 248 250 252 254 255 253 250 251 253 255 257 258 260 266 271 273
178 196 219 231 224 230 238 241 241 241 242 241 241 244 240 235 239 242 241 240 241 243 243 242 249 255 257 255 253 247 248 252 252 248 250 255 255 255 256 260 265 271 271
160 175 205 236 243 239 238 246 247 246 246 248 248 245 244 244 244 246 247 249 248 250 250 250 250 255 260 263 262 260 260 263 264 260 251 253 256 257 257 261 264 267 268
135 173 212 242 251 252 256 260 258 253 252 252 251 250 248 248 252 256 256 256 257 260 261 262 261 262 264 265 266 268 268 268 270 271 265 255 255 257 260 262 265 269 269
112 139 264 292 279 272 268 269 269 265 261 260 257 253 254 257 259 260 262 261 265 268 269 268 266 266 269 271 271 271 272 273 272 271 269 263 260 262 262 264 266 267 270
Height
1553 1554 1554 1555 1556 1556 1556 1556 1557 1557 1558 1558 1559 1559 1559 1559 1559 1559 1559 1559 1559 1558 1558 1558 1558 1557 1557 1557 1556 1555 1555 1554 1553 1552 1551 1550 1549 1548 1546 1545 1543 1542 1540
1552 1552 1553 1554 1554 1554 1555 1555 1556 1556 1557 1557 1558 1558 1559 1559 1559 1559 1559 1559 1559 1559 1558 1558 1558 1557 1557 1557 1556 1555 1555 1554 1553 1551 1551 1549 1548 1547 1545 1544 1543 1541 1540
1550 1551 1551 1552 1552 1553 1553 1554 1555 1556 1556 1557 1557 1558 1558 1558 1559 1559 1559 1559 1559 1559 1558 1558 1558 1557 1557 1556 1555 1555 1554 1553 1552 1551 1549 1548 1547 1546 1544 1543 1541 1540 1538
1547 1548 1549 1550 1551 1552 1552 1553 1554 1555 1555 1556 1557 1557 1557 1558 1558 1558 1559 1559 1558 1558 1558 1558 1557 1556 1556 1555 1554 1554 1553 1552 1551 1549 1548 1547 1545 1544 1542 1540 1538 1537 1536
1545 1546 1547 1549 1550 1550 1551 1552 1553 1553 1554 1555 1556 1556 1556 1557 1557 1558 1558 1558 1558 1558 1557 1557 1556 1556 1555 1554 1553 1552 1551 1550 1549 1548 1546 1545 1543 1542 1540 1538 1536 1534 1532
1542 1544 1545 1547 1547 1548 1549 1550 1551 1552 1553 1553 1554 1555 1555 1556 1556 1557 1557 1557 1557 1556 1556 1556 1555 1554 1553 1552 1551 1550 1550 1548 1546 1545 1544 1543 1541 1540 1538 1536 1533 1531 1528
1540 1542 1543 1544 1545 1546 1548 1549 1549 1550 1551 1552 1552 1553 1554 1554 1555 1555 1555 1555 1555 1554 1554 1554 1553 1552 1551 1550 1549 1548 1547 1546 1545 1544 1541 1540 1539 1537 1535 1533 1531 1528 1526
1537 1539 1541 1542 1543 1544 1546 1547 1548 1549 1549 1550 1551 1551 1552 1552 1553 1553 1553 1553 1552 1552 1552 1551 1551 1550 1549 1548 1547 1545 1544 1543 1542 1540 1539 1537 1536 1534 1532 1530 1527 1525 1523
1534 1536 1538 1539 1541 1542 1543 1544 1545 1546 1547 1548 1548 1549 1550 1550 1550 1550 1550 1550 1550 1549 1549 1549 1548 1547 1546 1545 1544 1542 1541 1540 1539 1537 1536 1534 1532 1531 1529 1526 1524 1521 1517
1531 1533 1535 1537 1538 1539 1540 1542 1543 1544 1545 1546 1546 1547 1547 1547 1547 1548 1547 1547 1546 1546 1546 1545 1545 1544 1543 1542 1540 1539 1537 1536 1534 1533 1531 1530 1528 1526 1525 1523 1520 1517 1514
1529 1531 1532 1534 1535 1536 1538 1539 1540 1541 1542 1542 1543 1544 1544 1544 1544 1544 1544 1543 1543 1542 1542 1541 1541 1540 1539 1538 1537 1535 1533 1532 1530 1528 1526 1525 1523 1522 1520 1518 1516 1514 1511
1526 1528 1529 1531 1532 1533 1534 1535 1537 1538 1538 1539 1539 1540 1540 1540 1540 1540 1540 1540 1539 1538 1538 1537 1537 1536 1535 1534 1532 1531 1529 1528 1526 1524 1522 1520 1518 1516 1515 1513 1511 1509 1506
1523 1524 1526 1527 1529 1530 1531 1532 1533 1534 1535 1535 1535 1535 1536 1536 1536 1536 1536 1536 1535 1534 1533 1533 1532 1531 1530 1529 1528 1526 1525 1523 1520 1518 1516 1514 1513 1511 1509 1507 1505 1503 1500
1519 1521 1522 1524 1525 1526 1527 1529 1529 1530 1530 1531 1531 1531 1531 1531 1531 1531 1531 1531 1530 1530 1529 1528 1527 1527 1525 1524 1523 1521 1519 1517 1515 1513 1511 1509 1507 1505 1503 1501 1498 1495 1493
1516 1517 1519 1520 1521 1522 1523 1524 1525 1526 1527 1527 1527 1527 1526 1526 1526 1527 1526 1525 1525 1524 1524 1523 1522 1521 1519 1518 1517 1515 1513 1512 1510 1507 1505 1503 1501 1499 1496 1494 1492 1489 1486
1512 1514 1515 1516 1517 1518 1519 1520 1520 1521 1522 1522 1522 1522 1521 1522 1522 1521 1521 1520 1520 1519 1518 1516 1515 1514 1513 1512 1510 1508 1507 1505 1503 1502 1499 1497 1495 1492 1490 1488 1486 1483 1480
1509 1510 1511 1512 1513 1513 1514 1515 1515 1516 1516 1517 1517 1516 1516 1516 1516 1515 1515 1514 1514 1513 1512 1510 1509 1508 1507 1505 1504 1502 1500 1499 1497 1495 1493 1491 1489 1486 1483 1481 1479 1476 1473
1505 1506 1507 1508 1509 1509 1510 1510 1510 1510 1510 1510 1511 1511 1510 1510 1510 1509 1509 1508 1507 1506 1504 1503 1503 1501 1500 1499 1497 1495 1494 1492 1491 1488 1486 1484 1482 1480 1477 1474 1472 1470 1467
1502 1503 1503 1504 1504 1505 1505 1505 1505 1505 1505 1504 1504 1504 1504 1504 1503 1503 1502 1501 1500 1498 1498 1497 1496 1495 1493 1492 1490 1488 1487 1485 1483 1481 1479 1477 1475 1473 1470 1468 1465 1462 1460
1498 1499 1500 1500 1500 1500 1500 1500 1500 1500 1499 1498 1498 1498 1498 1497 1496 1496 1495 1494 1493 1492 1491 1490 1488 1487 1486 1484 1483 1481 1479 1478 1476 1474 1472 1470 1468 1466 1463 1461 1458 1455 1452
1494 1495 1495 1495 1495 1495 1495 1495 1495 1494 1493 1493 1492 1492 1492 1491 1490 1489 1488 1487 1486 1485 1484 1483 1481 1480 1479 1477 1475 1474 1472 1470 1468 1467 1465 1463 1461 1458 1456 1454 1451 1448 1445
1490 1490 1490 1490 1490 1490 1490 1490 1489 1489 1488 1487 1486 1486 1486 1485 1484 1483 1481 1480 1479 1478 1477 1476 1474 1472 1471 1469 1468 1466 1464 1462 1461 1459 1457 1455 1453 1451 1448 1446 1443 1441 1438
1485 1485 1485 1485 1485 1485 1485 1484 1484 1483 1482 1481 1481 1480 1479 1478 1477 1476 1475 1474 1473 1471 1470 1468 1466 1465 1463 1462 1460 1458 1456 1454 1453 1451 1449 1447 1445 1443 1440 1438 1435 1432 1430
1481 1481 1480 1480 1480 1479 1479 1478 1478 1477 1476 1475 1474 1473 1472 1471 1470 1469 1468 1467 1465 1464 1462 1461 1459 1457 1456 1454 1452 1450 1449 1447 1445 1443 1441 1439 1437 1435 1432 1430 1427 1424 1422
1476 1476 1476 1475 1475 1474 1474 1473 1472 1471 1470 1469 1468 1467 1466 1465 1464 1462 1461 1459 1458 1456 1454 1453 1451 1450 1448 1446 1444 1442 1440 1439 1437 1435 1433 1431 1428 1426 1424 1421 1419 1416 1413
1472 1472 1471 1471 1470 1470 1469 1468 1467 1465 1464 1463 1462 1461 1460 1458 1457 1455 1454 1452 1450 1449 1447 1445 1443 1441 1440 1437 1436 1434 1432 1430 1429 1427 1425 1422 1420 1417 1415 1413 1410 1407 1405